Location: Franzen
(48.6167°N, 15.3833°E)
Time: 02:29:35
(UTC+00:00)

Cosmos 1408 Rocket - Visible Passes

Search period start: 05 August 2021 00:00
Search period end: 15 August 2021 00:00
Orbit: 600 x 632 km, 82.6° (Epoch: 04 August)

Date Brightness Start Highest point End Pass type
(mag) Time Alt. Az. Time Alt. Az. Time Alt. Az.
05 Aug 3.5 20:17:01 12° S 20:21:03 87° WNW 20:25:23 10° N visible
05 Aug 6.5 21:58:22 10° WNW 21:59:34 11° WNW 22:00:44 10° NW visible
06 Aug 5.1 18:57:07 10° SE 19:00:00 18° E 19:02:53 10° NE visible
06 Aug 4.3 20:33:11 10° SSW 20:37:24 50° WNW 20:41:37 10° N visible
07 Aug 4.5 19:12:21 10° SSE 19:16:05 29° E 19:19:50 10° NNE visible
07 Aug 5.3 20:50:02 10° SW 20:53:50 30° WNW 20:57:40 10° N visible
08 Aug 3.7 19:28:05 10° S 19:32:16 50° E 19:36:27 10° NNE visible
08 Aug 6.1 21:07:21 10° WSW 21:10:23 18° WNW 21:13:25 10° NNW visible
09 Aug 3.5 19:44:12 10° S 19:48:32 89° E 19:52:52 10° N visible
09 Aug 6.5 21:25:36 10° W 21:27:01 11° WNW 21:28:26 10° NW visible
10 Aug 4.3 20:00:40 10° SSW 20:04:53 52° WNW 20:09:07 10° N visible
11 Aug 5.4 20:17:29 10° SW 20:21:19 31° WNW 20:25:10 10° N visible
12 Aug 3.8 18:55:38 10° SSE 18:59:46 48° E 19:03:55 10° NNE visible
12 Aug 6.2 20:34:44 10° WSW 20:37:51 19° WNW 20:40:58 10° NNW visible
13 Aug 3.5 19:11:43 10° S 19:16:00 85° ESE 19:20:21 10° N visible
13 Aug 6.6 20:52:51 10° W 20:54:28 12° WNW 20:56:06 10° NW visible
14 Aug 4.3 19:28:08 10° SSW 19:32:21 55° WNW 19:36:36 10° N visible
